TimeCDT,TemperatureF,Dew PointF,Humidity,Sea Level PressureIn,VisibilityMPH,Wind Direction,Wind SpeedMPH,Gust SpeedMPH,PrecipitationIn,Events,Conditions,WindDirDegrees,DateUTC
12:15 AM,66.2,62.6,88,30.09,7.0,Calm,Calm,-,N/A,,Clear,0,2013-08-21 05:15:00
12:35 AM,65.7,63.1,92,30.09,5.0,Calm,Calm,-,N/A,,Clear,0,2013-08-21 05:35:00
12:55 AM,65.5,63.5,93,30.09,5.0,Calm,Calm,-,N/A,,Clear,0,2013-08-21 05:55:00
1:15 AM,63.7,61.7,93,30.09,5.0,Calm,Calm,-,N/A,,Clear,0,2013-08-21 06:15:00
1:35 AM,65.1,62.6,92,30.09,5.0,Calm,Calm,-,N/A,,Clear,0,2013-08-21 06:35:00
1:55 AM,64.4,62.8,94,30.09,2.5,Calm,Calm,-,N/A,,Clear,0,2013-08-21 06:55:00
2:15 AM,64.4,63.0,95,30.09,4.0,Calm,Calm,-,N/A,,Clear,0,2013-08-21 07:15:00
2:35 AM,63.9,62.6,96,30.08,4.0,Calm,Calm,-,N/A,,Clear,0,2013-08-21 07:35:00
2:55 AM,63.5,62.1,95,30.08,4.0,Calm,Calm,-,N/A,,Clear,0,2013-08-21 07:55:00
3:15 AM,63.1,61.7,95,30.08,2.5,Calm,Calm,-,N/A,,Clear,0,2013-08-21 08:15:00
3:35 AM,63.1,62.1,96,30.08,2.5,Calm,Calm,-,N/A,,Clear,0,2013-08-21 08:35:00
3:55 AM,62.4,61.3,96,30.08,3.0,Calm,Calm,-,N/A,,Clear,0,2013-08-21 08:55:00
4:15 AM,64.0,62.2,94,30.08,5.0,Calm,Calm,-,N/A,,Clear,0,2013-08-21 09:15:00
4:35 AM,62.8,61.5,96,30.09,4.0,Calm,Calm,-,N/A,,Clear,0,2013-08-21 09:35:00
5:15 AM,63.1,61.9,96,30.09,3.0,Calm,Calm,-,N/A,,Clear,0,2013-08-21 10:15:00
5:35 AM,62.2,61.2,96,30.10,2.5,Calm,Calm,-,N/A,,Clear,0,2013-08-21 10:35:00
5:55 AM,62.8,61.7,96,30.10,2.5,Calm,Calm,-,N/A,,Clear,0,2013-08-21 10:55:00
6:15 AM,62.4,61.5,97,30.10,1.8,Calm,Calm,-,N/A,,Mist,0,2013-08-21 11:15:00
6:35 AM,62.1,61.2,97,30.10,2.0,Calm,Calm,-,N/A,,Clear,0,2013-08-21 11:35:00
6:55 AM,64.2,63.1,96,30.11,4.0,Calm,Calm,-,N/A,,Clear,0,2013-08-21 11:55:00
7:15 AM,67.8,64.6,89,30.11,5.0,Calm,Calm,-,N/A,,Clear,0,2013-08-21 12:15:00
7:35 AM,69.6,65.1,86,30.11,7.0,SW,3.5,-,N/A,,Clear,220,2013-08-21 12:35:00
7:55 AM,71.4,65.1,80,30.11,7.0,South,3.5,-,N/A,,Clear,180,2013-08-21 12:55:00
8:15 AM,73.6,65.3,75,30.12,10.0,SSW,4.6,-,N/A,,Clear,200,2013-08-21 13:15:00
8:35 AM,75.4,65.7,72,30.11,10.0,Calm,Calm,-,N/A,,Clear,0,2013-08-21 13:35:00
8:55 AM,76.8,65.5,68,30.11,10.0,SW,3.5,-,N/A,,Clear,220,2013-08-21 13:55:00
9:15 AM,78.1,65.7,65,30.11,10.0,South,4.6,-,N/A,,Clear,190,2013-08-21 14:15:00
10:15 AM,81.9,65.5,57,30.11,10.0,WSW,5.8,-,N/A,,Clear,240,2013-08-21 15:15:00
10:35 AM,82.4,64.9,55,30.11,10.0,WSW,6.9,-,N/A,,Clear,240,2013-08-21 15:35:00
10:55 AM,83.1,65.5,55,30.11,10.0,SW,4.6,-,N/A,,Clear,220,2013-08-21 15:55:00
11:15 AM,84.0,64.8,52,30.10,10.0,WSW,6.9,-,N/A,,Clear,240,2013-08-21 16:15:00
11:35 AM,85.5,64.2,49,30.10,10.0,SW,8.1,-,N/A,,Clear,230,2013-08-21 16:35:00
11:55 AM,85.6,62.8,46,30.09,10.0,West,9.2,-,N/A,,Clear,260,2013-08-21 16:55:00
12:15 PM,87.1,63.7,45,30.09,10.0,SW,6.9,-,N/A,,Clear,230,2013-08-21 17:15:00
12:35 PM,86.4,63.0,45,30.09,10.0,SW,8.1,-,N/A,,Scattered Clouds,220,2013-08-21 17:35:00
12:55 PM,86.7,61.9,43,30.09,10.0,SW,6.9,-,N/A,,Scattered Clouds,220,2013-08-21 17:55:00
1:15 PM,87.6,60.4,40,30.08,10.0,SW,8.1,-,N/A,,Scattered Clouds,220,2013-08-21 18:15:00
1:35 PM,89.2,60.3,38,30.08,10.0,SSW,10.4,17.3,N/A,,Scattered Clouds,200,2013-08-21 18:35:00
1:55 PM,88.9,61.0,39,30.07,10.0,SSW,11.5,16.1,N/A,,Clear,210,2013-08-21 18:55:00
2:15 PM,88.3,61.0,40,30.07,10.0,SW,9.2,17.3,N/A,,Clear,230,2013-08-21 19:15:00
2:35 PM,88.9,59.9,38,30.06,10.0,SW,8.1,17.3,N/A,,Scattered Clouds,220,2013-08-21 19:35:00
2:55 PM,88.5,60.4,39,30.05,10.0,SSW,10.4,17.3,N/A,,Clear,210,2013-08-21 19:55:00
3:15 PM,88.9,60.6,39,30.05,10.0,SW,10.4,18.4,N/A,,Scattered Clouds,230,2013-08-21 20:15:00
3:35 PM,88.3,60.3,39,30.05,10.0,SW,8.1,16.1,N/A,,Clear,220,2013-08-21 20:35:00
3:55 PM,88.3,61.3,40,30.04,10.0,SSW,9.2,18.4,N/A,,Clear,200,2013-08-21 20:55:00
4:15 PM,88.5,61.2,40,30.04,10.0,WSW,10.4,-,N/A,,Clear,240,2013-08-21 21:15:00
5:15 PM,87.1,61.5,42,30.02,10.0,SW,10.4,-,N/A,,Clear,220,2013-08-21 22:15:00
5:35 PM,86.4,61.2,43,30.01,10.0,SW,8.1,-,N/A,,Clear,220,2013-08-21 22:35:00
5:55 PM,86.0,61.9,44,30.01,10.0,SW,8.1,16.1,N/A,,Clear,220,2013-08-21 22:55:00
6:15 PM,85.3,62.6,46,30.01,10.0,SW,10.4,-,N/A,,Clear,220,2013-08-21 23:15:00
6:35 PM,84.6,62.6,48,30.01,10.0,SW,8.1,-,N/A,,Clear,220,2013-08-21 23:35:00
6:55 PM,84.0,62.8,49,30.00,10.0,SW,6.9,-,N/A,,Clear,220,2013-08-21 23:55:00
7:15 PM,82.6,63.7,53,30.01,10.0,SW,4.6,-,N/A,,Clear,220,2013-08-22 00:15:00
7:35 PM,82.0,64.0,54,30.02,10.0,SW,4.6,-,N/A,,Clear,220,2013-08-22 00:35:00
7:55 PM,81.7,64.4,56,30.03,10.0,WSW,4.6,-,N/A,,Scattered Clouds,240,2013-08-22 00:55:00
8:15 PM,80.8,65.1,59,30.04,10.0,Calm,Calm,-,N/A,,Scattered Clouds,0,2013-08-22 01:15:00
8:35 PM,79.9,65.7,62,30.04,10.0,SSW,3.5,-,N/A,,Scattered Clouds,210,2013-08-22 01:35:00
8:55 PM,78.1,66.2,67,30.05,10.0,SSW,4.6,-,N/A,,Scattered Clouds,210,2013-08-22 01:55:00
9:15 PM,78.1,66.2,67,30.06,10.0,Calm,Calm,-,N/A,,Scattered Clouds,0,2013-08-22 02:15:00
9:35 PM,77.5,66.2,68,30.05,10.0,SSW,4.6,-,N/A,,Scattered Clouds,200,2013-08-22 02:35:00
10:35 PM,77.9,65.7,66,30.05,10.0,SW,4.6,-,N/A,,Scattered Clouds,230,2013-08-22 03:35:00
10:55 PM,77.9,65.8,66,30.06,10.0,SW,4.6,-,N/A,,Scattered Clouds,230,2013-08-22 03:55:00
11:15 PM,77.5,66.2,68,30.05,10.0,SW,3.5,-,N/A,,Mostly Cloudy,230,2013-08-22 04:15:00
11:35 PM,77.7,66.2,68,30.05,10.0,SSW,3.5,-,N/A,,Overcast,210,2013-08-22 04:35:00
11:55 PM,77.2,66.2,69,30.05,10.0,SW,5.8,-,N/A,,Mostly Cloudy,220,2013-08-22 04:55:00